Flag Island, MN

1:33 AM CDT on March 24, 2017 (GMT -0500)
Flag Island

Weather History for KFGN - March, 2013

Change the Weather History Date:

Tuesday, March 12, 2013

  Actual Average Record
Temperature  
Mean Temperature 18 °F -  
Max Temperature 26 °F 23 °F 53 °F (2016)
Min Temperature 10 °F 4 °F -23 °F (2009)
Degree Days  
Heating Degree Days 47    
Moisture  
Dew Point 8 °F    
Average Humidity 67    
Maximum Humidity 85    
Minimum Humidity 37    
Precipitation  
Precipitation 0.00 in - - ()
Sea Level Pressure  
Sea Level Pressure 30.02 in    
Wind  
Wind Speed 7 mph (NNW)    
Max Wind Speed 16 mph    
Max Gust Speed -    
Visibility 10 miles    
Events      
Averages and records for this station are not official NWS values.
T = Trace of Precipitation, MM = Missing Value Source: NWS Daily Summary

Daily Weather History Graph

Daily Weather History Graph

Search for Another Location

Airport or City:

Trip Planner

Search our weather history database for the weather conditions in past years. The results will help you decide how hot, cold, wet, or windy it might be!

Date:

Astronomy

Mar. 12, 2013 Rise Set
Actual Time 7:38 AM CDT 7:20 PM CDT
Civil Twilight 7:07 AM CDT 7:52 PM CDT
Nautical Twilight 6:30 AM CDT 8:29 PM CDT
Astronomical Twilight 5:52 AM CDT 9:07 PM CDT
Moon 7:37 AM CDT (3/12) 8:48 PM CDT (3/12)
Length of Visible Light 12h 45m
Length of Day
11h 41m
New Moon, 1% of the Moon is Illuminated
Mar 12
New Moon
Mar 19
First Quarter
Mar 27
Full
Apr 2
Last Quarter
Apr 10
New

Hourly Weather History & Observations

Time (CDT) Temp. Windchill Dew Point Humidity Pressure Visibility Wind Dir Wind Speed Gust Speed Precip Events Conditions
12:13 AM 15.8 °F 6.1 °F 8.6 °F 73% 29.83 in 10.0 mi NW 6.9 mph - N/A   Overcast
12:34 AM 15.8 °F 7.2 °F 8.6 °F 73% 29.84 in 10.0 mi NW 5.8 mph - N/A   Mostly Cloudy
12:53 AM 14.0 °F 5.1 °F 8.6 °F 79% 29.84 in 10.0 mi NW 5.8 mph - N/A   Mostly Cloudy
1:13 AM 14.0 °F - 6.8 °F 73% 29.84 in 10.0 mi Calm Calm - N/A   Overcast
1:34 AM 12.2 °F - 6.8 °F 79% 29.85 in 10.0 mi Calm Calm - N/A   Scattered Clouds
1:53 AM 12.2 °F - 6.8 °F 79% 29.85 in 10.0 mi Calm Calm - N/A   Scattered Clouds
2:13 AM 14.0 °F 6.5 °F 6.8 °F 73% 29.85 in 10.0 mi NNW 4.6 mph - N/A   Scattered Clouds
2:53 AM 14.0 °F 6.5 °F 6.8 °F 73% 29.87 in 10.0 mi NW 4.6 mph - N/A   Scattered Clouds
3:13 AM 15.8 °F 7.2 °F 6.8 °F 68% 29.87 in 10.0 mi NW 5.8 mph - N/A   Scattered Clouds
3:33 AM 14.0 °F 3.9 °F 6.8 °F 73% 29.87 in 10.0 mi NW 6.9 mph - N/A   Mostly Cloudy
4:13 AM 12.2 °F 6.1 °F 6.8 °F 79% 29.88 in 10.0 mi NNW 3.5 mph - N/A   Overcast
4:33 AM 12.2 °F - 6.8 °F 79% 29.88 in 10.0 mi Calm Calm - N/A   Overcast
4:53 AM 12.2 °F 6.1 °F 6.8 °F 79% 29.88 in 10.0 mi NW 3.5 mph - N/A   Overcast
5:13 AM 12.2 °F 0.7 °F 6.8 °F 79% 29.89 in 10.0 mi WNW 8.1 mph - N/A   Overcast
5:33 AM 12.2 °F 0.7 °F 6.8 °F 79% 29.89 in 10.0 mi NW 8.1 mph - N/A   Scattered Clouds
5:53 AM 10.4 °F 4.0 °F 6.8 °F 85% 29.90 in 10.0 mi NNW 3.5 mph - N/A   Mostly Cloudy
6:14 AM 12.2 °F - 8.6 °F 85% 29.91 in 10.0 mi Calm Calm - N/A   Overcast
6:33 AM 14.0 °F 2.9 °F 8.6 °F 79% 29.92 in 10.0 mi North 8.1 mph - N/A   Overcast
6:54 AM 14.0 °F 3.9 °F 8.6 °F 79% 29.93 in 10.0 mi North 6.9 mph - N/A   Mostly Cloudy
7:13 AM 12.2 °F 2.9 °F 6.8 °F 79% 29.94 in 10.0 mi North 5.8 mph - N/A   Mostly Cloudy
7:33 AM 12.2 °F 1.7 °F 6.8 °F 79% 29.95 in 10.0 mi North 6.9 mph - N/A   Scattered Clouds
7:54 AM 12.2 °F 0.7 °F 6.8 °F 79% 29.96 in 10.0 mi North 8.1 mph - N/A   Mostly Cloudy
8:13 AM 12.2 °F 2.9 °F 6.8 °F 79% 29.97 in 10.0 mi North 5.8 mph - N/A   Scattered Clouds
8:33 AM 12.2 °F 2.9 °F 6.8 °F 79% 29.97 in 10.0 mi NW 5.8 mph - N/A   Clear
8:54 AM 10.4 °F -1.5 °F 6.8 °F 85% 29.98 in 10.0 mi NNW 8.1 mph - N/A   Clear
9:13 AM 10.4 °F -3.3 °F 6.8 °F 85% 29.99 in 10.0 mi NW 10.4 mph - N/A   Clear
9:33 AM 12.2 °F -0.2 °F 6.8 °F 79% 30.00 in 10.0 mi NNW 9.2 mph - N/A   Clear
9:54 AM 12.2 °F 1.7 °F 6.8 °F 79% 30.01 in 10.0 mi NNW 6.9 mph - N/A   Clear
10:13 AM 14.0 °F 5.1 °F 6.8 °F 73% 30.01 in 10.0 mi North 5.8 mph - N/A   Clear
10:33 AM 15.8 °F 6.1 °F 6.8 °F 68% 30.02 in 10.0 mi North 6.9 mph - N/A   Clear
10:54 AM 15.8 °F 6.1 °F 6.8 °F 68% 30.02 in 10.0 mi North 6.9 mph - N/A   Clear
11:13 AM 17.6 °F 9.3 °F 8.6 °F 68% 30.03 in 10.0 mi North 5.8 mph - N/A   Clear
11:33 AM 17.6 °F 7.3 °F 6.8 °F 63% 30.04 in 10.0 mi North 8.1 mph - N/A   Clear
11:54 AM 19.4 °F 8.6 °F 6.8 °F 58% 30.04 in 10.0 mi North 9.2 mph - N/A   Clear
12:13 PM 19.4 °F 8.6 °F 6.8 °F 58% 30.05 in 10.0 mi North 9.2 mph - N/A   Scattered Clouds
12:33 PM 21.2 °F 10.1 °F 6.8 °F 54% 30.05 in 10.0 mi North 10.4 mph - N/A   Clear
12:54 PM 21.2 °F 10.9 °F 8.6 °F 58% 30.05 in 10.0 mi NNE 9.2 mph - N/A   Clear
1:13 PM 21.2 °F 10.9 °F 6.8 °F 54% 30.05 in 10.0 mi NNE 9.2 mph - N/A   Clear
1:33 PM 23.0 °F 12.4 °F 6.8 °F 50% 30.06 in 10.0 mi North 10.4 mph - N/A   Clear
1:53 PM 24.8 °F 14.0 °F 6.8 °F 46% 30.06 in 10.0 mi North 11.5 mph - N/A   Clear
2:13 PM 24.8 °F 14.0 °F 8.6 °F 50% 30.06 in 10.0 mi NNW 11.5 mph - N/A   Clear
2:34 PM 24.8 °F 14.6 °F 6.8 °F 46% 30.06 in 10.0 mi NNW 10.4 mph - N/A   Clear
2:53 PM 24.8 °F 15.3 °F 6.8 °F 46% 30.06 in 10.0 mi NNW 9.2 mph - N/A   Clear
3:13 PM 26.6 °F 16.2 °F 6.8 °F 43% 30.06 in 10.0 mi North 11.5 mph - N/A   Clear
3:34 PM 26.6 °F 15.2 °F 6.8 °F 43% 30.07 in 10.0 mi NNW 13.8 mph - N/A   Clear
3:53 PM 26.6 °F 15.7 °F 6.8 °F 43% 30.07 in 10.0 mi North 12.7 mph - N/A   Clear
4:13 PM 26.6 °F 14.7 °F 5.0 °F 40% 30.07 in 10.0 mi North 15.0 mph - N/A   Clear
4:34 PM 26.6 °F 17.5 °F 6.8 °F 43% 30.08 in 10.0 mi North 9.2 mph - N/A   Clear
4:53 PM 26.6 °F 18.2 °F 6.8 °F 43% 30.08 in 10.0 mi North 8.1 mph - N/A   Clear
5:13 PM 26.6 °F 17.5 °F 6.8 °F 43% 30.09 in 10.0 mi North 9.2 mph - N/A   Clear
5:34 PM 26.6 °F 16.2 °F 3.2 °F 37% 30.09 in 10.0 mi North 11.5 mph - N/A   Clear
5:53 PM 26.6 °F 15.2 °F 6.8 °F 43% 30.09 in 10.0 mi NNW 13.8 mph - N/A   Clear
6:13 PM 26.6 °F 15.7 °F 5.0 °F 40% 30.10 in 10.0 mi NNW 12.7 mph - N/A   Clear
6:34 PM 26.6 °F 15.7 °F 5.0 °F 40% 30.10 in 10.0 mi North 12.7 mph - N/A   Clear
6:53 PM 26.6 °F 16.8 °F 3.2 °F 37% 30.11 in 10.0 mi North 10.4 mph - N/A   Clear
7:13 PM 24.8 °F 15.3 °F 3.2 °F 40% 30.12 in 10.0 mi North 9.2 mph - N/A   Clear
7:34 PM 21.2 °F 8.3 °F 12.2 °F 68% 30.13 in 10.0 mi WNW 13.8 mph - N/A   Clear
7:53 PM 21.2 °F 7.8 °F 14.0 °F 74% 30.15 in 10.0 mi NW 15.0 mph - N/A   Clear
8:13 PM 21.2 °F 7.8 °F 14.0 °F 74% 30.15 in 10.0 mi NW 15.0 mph - N/A   Clear
8:33 PM 19.4 °F 5.5 °F 14.0 °F 80% 30.16 in 10.0 mi NW 15.0 mph - N/A   Clear
8:53 PM 19.4 °F 6.6 °F 12.2 °F 74% 30.16 in 10.0 mi NW 12.7 mph - N/A   Clear
9:13 PM 19.4 °F 5.0 °F 12.2 °F 74% 30.17 in 10.0 mi NW 16.1 mph - N/A   Clear
9:33 PM 19.4 °F 5.5 °F 12.2 °F 74% 30.18 in 10.0 mi NW 15.0 mph - N/A   Clear
9:54 PM 17.6 °F 3.7 °F 12.2 °F 79% 30.19 in 10.0 mi NW 13.8 mph - N/A   Clear
10:13 PM 17.6 °F 3.7 °F 10.4 °F 73% 30.19 in 10.0 mi NW 13.8 mph - N/A   Clear
10:33 PM 15.8 °F 2.7 °F 10.4 °F 79% 30.18 in 10.0 mi NW 11.5 mph - N/A   Clear
10:53 PM 14.0 °F 0.5 °F 8.6 °F 79% 30.19 in 10.0 mi WNW 11.5 mph - N/A   Clear
11:13 PM 14.0 °F 1.2 °F 8.6 °F 79% 30.20 in 10.0 mi NW 10.4 mph - N/A   Clear
11:34 PM 12.2 °F -1.8 °F 8.6 °F 85% 30.20 in 10.0 mi WNW 11.5 mph - N/A   Clear
11:54 PM 12.2 °F 0.7 °F 8.6 °F 85% 30.20 in 10.0 mi NW 8.1 mph - N/A   Clear